Погода в Таллинне

Погода в Таллинне : погода сейчас, прогноз погоды и архив. Всё, что Вы хотите узнать о погоде в Таллинне!

Поиск расширенной информации на нашем сайте:

Другие новости

Новости СМИ2

Главная страница сайта

Новости сайта

03.07.2017

Напоминаем, что на нашем специализированном сайте Метеоцентр.Азия вы можете получить высокодетализированные автоматические прогнозы погоды по пунктам России, СНГ и мира в авиационном формате (включающие направление и скорость ветра, видимость, явления погоды, количество и форму облачности, нижнюю и верхнюю границу облачности).


Погода в Таллинне - сегодня

Время (UTC), дата Ветер
(°,м/с) 
Видим.   Явления Облачность Т
(°С)
Тd
(°С)
f(%) Тe
(°С)
Pmin
(гПа)
dP
(гПа)
Po
(мм)
O2
(г/м3)
Тmin Tmax R s Состояние
почвы
06 18.04.18 310 (СЗ) 16000 м  {морось}  10/10 60 м 
[St]
+4 +3.4 96 +3  1019.2  1.5  761  302  +2.5  +4       
09 18.04.18 300 (СЗ) 20000 м    4/4 300 м 
[St]
+8.7 +5.2 79 +8  1020.5  1.3  762  297  +2.8  +8.7       
12 18.04.18 280 (З) 20000 м    3/1 1200 м средняя, верхняя 
[Cu hum|Ac trans|Ci fib]
+11.3 +5.1 66 +11  1020.8  0.3  763  294  +2.8  +12.1       
15 18.04.18 260 (З) 5{09}  20000 м    5/0 средняя, верхняя 
[Ac trans|Cc]
+9.1 +0.3 54 +8  1020.3  -0.5  762  297  +3.2  +12.5       
18 18.04.18 250 (З) 4{09}  20000 м    10/5 180 м средняя 
[St|Ac trans]
+6.7 +5.7 93 +5  1020.6  0.3  762  299  +4  +12.5       
21 18.04.18 270 (З) 20000 м    8/8 180 м 
[Sc]
+6.1 +5.1 93 +5  1020.1  -0.5  762  300  +5.7  +12.5       
00 19.04.18 280 (З) 20000 м    8/8 960 м 
[Sc]
+5.8 +4 88 +4  1019.6  -0.5  762  300  +5.5  +12.5       
03 19.04.18 310 (СЗ) 20000 м    10/10 360 м 
[St]
+5.6 +4.1 90 +5  1019.5  -0.1  762  300  +4.8  +9.1       
06 19.04.18 330 (СЗ) 4{09}  20000 м    10/10 300 м 
[St]
+5.1 +3.4 89 +3  1021.4  1.9  763  301  +4.7  +6.8       
21 19.04.18 230 (ЮЗ) 20000 м    1/0 верхняя 
[Ci fib]
+3.6 +1.9 89 +3  1024.5  0.4  765  304  +2.5  +12.7       
00 20.04.18 250 (З) 20000 м    3/0 верхняя 
[Ci fib]
+2.9 +1.7 92 +2  1024  -0.5  765  305  +2.5  +12.7       
03 20.04.18 220 (ЮЗ) 20000 м    9/0 верхняя 
[Cc]
+2.8 +1.9 94 +2  1022.8  -1.2  764  304  +2.5  +10.9       
06 20.04.18 200 (Ю) 20000 м    9/0 средняя, верхняя 
[Ac lent|Cs]
+6.3 +3.6 83 +5  1020.4  -2.4  762  300  +2.5  +6.4       
09 20.04.18 220 (ЮЗ) 5-9{11}  20000 м    4/3 средняя, верхняя 
[Ac As|Ci fib]
+16.6 +6.6 52 +16  1016.4  -4  759  287  +2.5  +16.6       
12 20.04.18 250 (З) 7-10{12}  20000 м    3/1 средняя, верхняя 
[Ac lent|Ci fib]
+13.8 +8.4 70 +13  1014.7  -1.7  758  289  +2.6  +17.6       
18 20.04.18 240 (ЮЗ) 3{12}  20000 м    8/0 верхняя 
[Cc]
+12.4 +8.3 76 +12  1009.3  -3.1  754  289  +6.3  +17.6       
21 20.04.18 200 (Ю) 20000 м    9/9 2000 м средняя 
[Ac As]
+9.7 +7.1 84 +9  1005.3  -4  751  291  +9.6  +17.6       
00 21.04.18 200 (Ю) 20000 м    10/0 средняя 
[Ac As]
+8.2 +6.3 88 +7  999.9  -5.4  747  291  +8.1  +14.7       
03 21.04.18 240 (ЮЗ) 14000 м  в посл. час дождь  10/9 1380 м 
[Sc]
+7.2 +6.5 95 +6  997.3  -2.6  745  291  +7  +13.3       
09 21.04.18 310 (СЗ) 5-8{13}  20000 м    8/8 720 м средняя 
[Sc|Ac trans]
+9.3 +4.5 72 +8  1001.7  4.3  748  291  +5.1  +9.7       
12 21.04.18 280 (З) 6-11{12}  20000 м    3/3 1000 м средняя 
[Cu Sc|Ac trans]
+10.2 +3.5 63 +9  1003.8  2.1  750  291  +5.1  +10.4       
15 21.04.18 280 (З) 6-13{14}  20000 м    8/3 1000 м средняя, верхняя 
[Cu Sc|Ac trans|Cc]
+9.1 +2.3 62 +7  1005.1  1.3  751  292  +5.1  +10.9       
00 22.04.18 280 (З) 20000 м    3/3 2000 м средняя 
[Ac trans]
+4.8 +1 76 +4  1006.9  0.3  752  298  +4.7  +10.9       
03 22.04.18 280 (З) 20000 м    8/0 средняя, верхняя 
[Ac trans|Cc]
+4 +1.2 82 +3  1007.1  0.2  752  299  +3.9  +9.5       
09 22.04.18 340 (С) 20000 м    8/1 720 м средняя, верхняя 
[Sc|Ac trans|Ci fib]
+6.7 +2.5 75 +6  1011  2.4  755  297  +3.9  +6.7       
Время (UTC), дата Ветер
(°,м/с) 
Видим.   Явления Облачность Т
(°С)
Тd
(°С)
f(%) Тe
(°С)
Pmin
(гПа)
dP
(гПа)
Po
(мм)
O2
(г/м3)
Тmin Tmax R s Состояние
почвы

Для получения пояснительной информации подведите курсор к названию столбца.

ПОГОДА в Таллинне - архив

Всё, что Вы хотите узнать о погоде в Таллинне - удобно и подробно!

Выберите нужную дату (начиная с 1 января 2015* года) и нажмите кнопку "Найти".
Будут отображены архивные сводки погоды по пункту Таллинн, начиная с указанной даты.


Отображать данные в формате CSV (для использования в таблицах Excel)


Внимание! Наш архив погоды предназначен исключительно для личного некоммерческого использования в познавательных целях. Если Вам необходимы официальные справки о состоянии погоды (для производственных, юридических, коммерческих и т.п. целей), обращайтесь в органы Росгидромета.

*Примечание: данная дата относится к архиву по метеостанциям СССР (Россия, СНГ, Балтия).
Архив по метеостанциям Зарубежной Европы и Азии (кроме Китая) хранится 10 дней, по другим регионам земного шара (Китай, Африка, Америка, Австралия, Океания) - 1 день.

Таллинн - район местоположения метеостанции


Название, широта, долгота, высота метеостанции:
Таллинн 59.4°ш. 24.6°д. 34 м над ур. моря [Эстония]

Дополнительная информация

В oтличие oт бoльшинства пoгoдных сайтoв мы публикуем пoдрoбную метеoинфoрмацию в детальнoм прoфессиoнальнoм фoрмате.

Характеристики температуры и влажнoсти вoздуха измеряются на высoте 2 м в тени вдали oт зданий и деревьев.
Скoрoсть ветра измеряется на высoте 10 м (на урoвне рoста челoвека скoрoсть ветра ниже в 1.5-2 раза). Если метеoстанция нахoдится в гoрoде или в лесу, тo скoрoсть ветра занижена на 2-4 м/с пo сравнению с oткрытым местoм. Скoрoсть ветра над акватoриями крупных рек и oзёр, а также на вершинах хoлмoв на 2-5 м/с выше, чем в oбычных услoвиях.
Атмoсфернoе давление в разных тoчках местнoсти мoжет значительнo oтличаться oт давления на метеoстанции, в зависимoсти oт услoвий рельефа (при пoдъёме на 10 м давление пoнижается примернo на 1 мм рт.ст.).